DELTA 1 R/B, 3094

Orbit data source: Space-Track

DELTA 1 R/B, 3094 is space debris in LEO originally from a launch on Thu, 11 Jan 1968 UTC launched from the Air Force Western Test Range (AFWTR). Debris objects in space refer to the collection of defunct objects orbiting the Earth. Examples of debris include non-operational satellites, rocket bodies, and fragments generated from explosions, collisions, or faulty payload assembly.

Loading next visibility...
Identifier
3094, 1968-002B
Orbit
LEO
Country
Flag of USUS
Related business
Manufacturer
UTC
Mission
Spacecraft
Bus & Motor
FW4, Unknown motor
Mass
~40 kg wet, ~40 kg dry
Launch date (UTC)
1968-01-11 (58 years ago)
Launch vehicle
Unknown
Launch site
Air Force Western Test Range (AFWTR)
Object type
Payload
Rocket body
Debris
Shape & HBR
Unknown
Radar Cross Section
Medium (>0.1 m² and <1 m²)

Expand to show TLE details & history
Last TLE update: 6 hours ago

TLE from 6 hours ago
0 DELTA 1 R/B
1  3094U 68002B   26035.75626370 -.00000059  00000-0  60751-4 0  9992
2  3094 105.7987 310.3303 0314091 262.0140 165.6727 12.85276737722947
Epoch: 2026-02-04T18:09Z
TLE epoch observation values (Epoch: 2026-02-04T18:09:01.183Z)
Latitude
63.66884°
Longitude
-131.52062°
Altitude
1,565.682 km
Speed
6.982 km/s
True Right ascension
18h 22m 36s
True Declination
63° 32' 45"
Sunlit
Object was in daylight at epoch
Visualization orbit readout
Latitude
Unknown
Longitude
Unknown
Altitude
Unknown
Speed
Unknown
Apparent Right ascension
Unknown
Apparent Declination
Unknown
Sunlit
N/A
Visualization observer readout
Local Sidereal Time
01:46:43
Azimuth
Unknown
Elevation
Unknown
Doppler factor
Unknown
Orbital elements
Apogee altitude
1,559.836 km
Perigee altitude
1,076.372 km
Semi-major axis
7,696.241 km
Eccentricity
0.03141
Inclination
105.7987°
RAAN
310.3303°
Arg. of periapsis
262.014°
True anomaly
166.53065°
Mean anomaly
165.6727°
Eccentric anomaly
166.10487°
Mean motion
3.21459 °/min
Orbital period
111.99 mins
BSTAR
0.000060751
Loading maneuver chart data...
Computing Atmospheric mass density...
Loading historical data...
Loading historical data...
Loading historical data...
Loading historical data...
Loading historical data...
Loading historical data...
Loading historical data...

Documentation

Showing up to 5 results
|